contact:dominique.lefevre@mio.osupytheas.fr, maurice.libes@osupytheas.fr, didier.mallarino@osupytheas.fr
Project:EMSO http://www.emso-fr.org/EMSO-France
Depth: 2436.0 m
Title:EMSO Ligure Ouest : Data MII capteur CSTAR
DateTime,Latitude,Longitude,Instrument_Serial,Reference_Counts,Signal_Counts,Corrected_Signal_raw_counts,Calculated_Beam_c_inverse_meters,Internal_thermistor_counts
DateTime,Latitude,Longitude,Instrument_Serial,Reference_Counts,Signal_Counts,Corrected_Signal_raw_counts,Calculated_Beam_c_inverse_meters,Internal_thermistor_counts
2022-09-22T00:01:27,42.805,6.029,CST-1368DR,4574,5063,11783,01.127,551
2022-09-22T00:04:28,42.805,6.029,CST-1368DR,4574,5063,11782,01.127,551
2022-09-22T00:07:30,42.805,6.029,CST-1368DR,4574,5067,11792,01.123,551
2022-09-22T00:10:31,42.805,6.029,CST-1368DR,4574,5063,11783,01.127,551
2022-09-22T00:13:33,42.805,6.029,CST-1368DR,4574,5064,11785,01.126,551
2022-09-22T00:16:34,42.805,6.029,CST-1368DR,4574,5064,11785,01.126,551
2022-09-22T00:19:36,42.805,6.029,CST-1368DR,4574,5062,11780,01.128,551
2022-09-22T00:22:38,42.805,6.029,CST-1368DR,4574,5062,11780,01.128,551
2022-09-22T00:25:39,42.805,6.029,CST-1368DR,4574,5064,11784,01.126,551
2022-09-22T00:28:41,42.805,6.029,CST-1368DR,4574,5063,11783,01.127,551
2022-09-22T00:31:42,42.805,6.029,CST-1368DR,4574,5063,11783,01.127,551
2022-09-22T00:34:44,42.805,6.029,CST-1368DR,4574,5064,11784,01.126,551
2022-09-22T00:37:45,42.805,6.029,CST-1368DR,4574,5063,11782,01.127,551
2022-09-22T00:40:47,42.805,6.029,CST-1368DR,4574,5061,11778,01.128,551
2022-09-22T00:43:49,42.805,6.029,CST-1368DR,4574,5065,11787,01.125,551
2022-09-22T00:46:50,42.805,6.029,CST-1368DR,4574,5061,11778,01.128,551
2022-09-22T00:49:52,42.805,6.029,CST-1368DR,4574,5064,11784,01.126,551
2022-09-22T00:52:53,42.805,6.029,CST-1368DR,4574,5065,11786,01.126,551
2022-09-22T00:55:55,42.805,6.029,CST-1368DR,4574,5065,11786,01.126,551
2022-09-22T00:58:57,42.805,6.029,CST-1368DR,4574,5063,11782,01.127,551
2022-09-22T01:01:58,42.805,6.029,CST-1368DR,4574,5062,11781,01.127,551
2022-09-22T01:05:00,42.805,6.029,CST-1368DR,4574,5058,11771,01.131,551
2022-09-22T01:08:01,42.805,6.029,CST-1368DR,4574,5062,11779,01.128,551
2022-09-22T01:11:03,42.805,6.029,CST-1368DR,4574,5059,11773,01.130,551
2022-09-22T01:14:04,42.805,6.029,CST-1368DR,4574,5060,11776,01.129,551
2022-09-22T01:17:06,42.805,6.029,CST-1368DR,4574,5061,11777,01.129,551
2022-09-22T01:20:08,42.805,6.029,CST-1368DR,4574,5060,11776,01.129,551
2022-09-22T01:23:09,42.805,6.029,CST-1368DR,4574,5059,11773,01.130,551
2022-09-22T01:26:11,42.805,6.029,CST-1368DR,4574,5060,11775,01.129,551
2022-09-22T01:29:12,42.805,6.029,CST-1368DR,4574,5062,11779,01.128,551
2022-09-22T01:32:14,42.805,6.029,CST-1368DR,4574,5061,11777,01.129,551
2022-09-22T01:35:15,42.805,6.029,CST-1368DR,4574,5058,11772,01.130,551
2022-09-22T01:38:17,42.805,6.029,CST-1368DR,4574,5052,11758,01.135,551
2022-09-22T01:41:19,42.805,6.029,CST-1368DR,4574,5058,11771,01.131,551
2022-09-22T01:44:20,42.805,6.029,CST-1368DR,4574,5052,11757,01.135,551
2022-09-22T01:47:22,42.805,6.029,CST-1368DR,4574,5059,11774,01.130,551
2022-09-22T01:50:23,42.805,6.029,CST-1368DR,4574,5051,11755,01.136,551
2022-09-22T01:53:25,42.805,6.029,CST-1368DR,4574,5057,11767,01.132,551
2022-09-22T01:56:27,42.805,6.029,CST-1368DR,4573,5055,11767,01.132,551
2022-09-22T01:59:28,42.805,6.029,CST-1368DR,4574,5060,11775,01.129,551
2022-09-22T02:02:30,42.805,6.029,CST-1368DR,4573,5050,11755,01.136,551
2022-09-22T02:05:31,42.805,6.029,CST-1368DR,4574,5057,11767,01.132,551
2022-09-22T02:08:33,42.805,6.029,CST-1368DR,4574,5058,11770,01.131,551
2022-09-22T02:11:34,42.805,6.029,CST-1368DR,4574,5057,11767,01.132,551
2022-09-22T02:14:36,42.805,6.029,CST-1368DR,4574,5058,11772,01.130,551
2022-09-22T02:17:38,42.805,6.029,CST-1368DR,4574,5058,11770,01.131,551
2022-09-22T02:20:39,42.805,6.029,CST-1368DR,4574,5057,11769,01.131,551
2022-09-22T02:23:41,42.805,6.029,CST-1368DR,4573,5056,11769,01.131,551
2022-09-22T02:26:42,42.805,6.029,CST-1368DR,4574,5059,11773,01.130,551
2022-09-22T02:29:44,42.805,6.029,CST-1368DR,4574,5058,11771,01.131,551
2022-09-22T02:32:46,42.805,6.029,CST-1368DR,4574,5057,11768,01.132,551
2022-09-22T02:35:47,42.805,6.029,CST-1368DR,4574,5055,11763,01.133,551
2022-09-22T02:38:49,42.805,6.029,CST-1368DR,4574,5057,11769,01.131,551
2022-09-22T02:41:50,42.805,6.029,CST-1368DR,4573,5058,11773,01.130,551
2022-09-22T02:44:52,42.805,6.029,CST-1368DR,4573,5059,11776,01.129,551
2022-09-22T02:47:53,42.805,6.029,CST-1368DR,4573,5058,11773,01.130,551
2022-09-22T02:50:55,42.805,6.029,CST-1368DR,4574,5060,11774,01.130,551
2022-09-22T02:53:57,42.805,6.029,CST-1368DR,4573,5059,11775,01.129,551
2022-09-22T02:56:58,42.805,6.029,CST-1368DR,4574,5059,11773,01.130,551
2022-09-22T03:00:00,42.805,6.029,CST-1368DR,4574,5059,11773,01.130,551
2022-09-22T03:03:01,42.805,6.029,CST-1368DR,4574,5060,11775,01.129,551
2022-09-22T03:06:03,42.805,6.029,CST-1368DR,4574,5060,11776,01.129,551
2022-09-22T03:09:04,42.805,6.029,CST-1368DR,4574,5058,11771,01.131,551
2022-09-22T03:12:06,42.805,6.029,CST-1368DR,4573,5058,11774,01.130,551
2022-09-22T03:15:08,42.805,6.029,CST-1368DR,4573,5055,11765,01.133,551
2022-09-22T03:18:09,42.805,6.029,CST-1368DR,4573,5058,11773,01.130,551
2022-09-22T03:21:11,42.805,6.029,CST-1368DR,4573,5058,11774,01.130,551
2022-09-22T03:24:12,42.805,6.029,CST-1368DR,4573,5060,11777,01.129,551
2022-09-22T03:27:14,42.805,6.029,CST-1368DR,4573,5059,11776,01.129,551
2022-09-22T03:30:16,42.805,6.029,CST-1368DR,4573,5059,11775,01.129,551
2022-09-22T03:33:17,42.805,6.029,CST-1368DR,4573,5058,11774,01.130,551
2022-09-22T03:36:19,42.805,6.029,CST-1368DR,4573,5055,11766,01.132,551
2022-09-22T03:39:20,42.805,6.029,CST-1368DR,4573,5057,11771,01.131,551
2022-09-22T03:42:22,42.805,6.029,CST-1368DR,4573,5056,11769,01.131,551
2022-09-22T03:45:23,42.805,6.029,CST-1368DR,4573,5059,11776,01.129,551
2022-09-22T03:48:25,42.805,6.029,CST-1368DR,4573,5060,11777,01.129,551
2022-09-22T03:51:27,42.805,6.029,CST-1368DR,4573,5060,11778,01.128,551
2022-09-22T03:54:28,42.805,6.029,CST-1368DR,4573,5060,11777,01.129,551
2022-09-22T03:57:30,42.805,6.029,CST-1368DR,4573,5060,11777,01.129,551
2022-09-22T04:00:31,42.805,6.029,CST-1368DR,4573,5059,11776,01.129,551
2022-09-22T04:03:33,42.805,6.029,CST-1368DR,4573,5061,11779,01.128,551
2022-09-22T04:06:34,42.805,6.029,CST-1368DR,4573,5059,11776,01.129,551
2022-09-22T04:09:36,42.805,6.029,CST-1368DR,4573,5058,11773,01.130,551
2022-09-22T04:12:38,42.805,6.029,CST-1368DR,4573,5058,11773,01.130,551
2022-09-22T04:15:39,42.805,6.029,CST-1368DR,4573,5059,11776,01.129,551
2022-09-22T04:18:41,42.805,6.029,CST-1368DR,4573,5060,11777,01.129,551
2022-09-22T04:21:42,42.805,6.029,CST-1368DR,4573,5061,11781,01.127,551
2022-09-22T04:24:44,42.805,6.029,CST-1368DR,4573,5060,11779,01.128,551
2022-09-22T04:27:46,42.805,6.029,CST-1368DR,4573,5060,11777,01.129,551
2022-09-22T04:30:47,42.805,6.029,CST-1368DR,4573,5060,11778,01.128,551
2022-09-22T04:33:49,42.805,6.029,CST-1368DR,4573,5060,11777,01.129,551
2022-09-22T04:36:50,42.805,6.029,CST-1368DR,4573,5061,11779,01.128,551
2022-09-22T04:39:52,42.805,6.029,CST-1368DR,4573,5060,11779,01.128,551
2022-09-22T04:42:53,42.805,6.029,CST-1368DR,4573,5060,11777,01.129,551
2022-09-22T04:45:55,42.805,6.029,CST-1368DR,4573,5060,11779,01.128,551
2022-09-22T04:48:57,42.805,6.029,CST-1368DR,4573,5060,11777,01.129,551
2022-09-22T04:51:58,42.805,6.029,CST-1368DR,4573,5059,11776,01.129,551
2022-09-22T04:55:00,42.805,6.029,CST-1368DR,4573,5061,11779,01.128,551
2022-09-22T04:58:01,42.805,6.029,CST-1368DR,4573,5056,11768,01.132,551
2022-09-22T05:01:03,42.805,6.029,CST-1368DR,4573,5054,11765,01.133,551
2022-09-22T05:04:04,42.805,6.029,CST-1368DR,4573,5057,11771,01.131,551
2022-09-22T05:07:06,42.805,6.029,CST-1368DR,4573,5055,11765,01.133,551
2022-09-22T05:10:08,42.805,6.029,CST-1368DR,4573,5057,11770,01.131,551
2022-09-22T05:13:09,42.805,6.029,CST-1368DR,4573,5056,11768,01.132,551
2022-09-22T05:16:11,42.805,6.029,CST-1368DR,4573,5056,11769,01.131,551
2022-09-22T05:19:12,42.805,6.029,CST-1368DR,4573,5058,11773,01.130,551
2022-09-22T05:22:14,42.805,6.029,CST-1368DR,4573,5057,11771,01.131,551
2022-09-22T05:25:16,42.805,6.029,CST-1368DR,4573,5056,11768,01.132,551
2022-09-22T05:28:17,42.805,6.029,CST-1368DR,4573,5054,11763,01.133,551
2022-09-22T05:31:19,42.805,6.029,CST-1368DR,4573,5056,11768,01.132,551
2022-09-22T05:34:20,42.805,6.029,CST-1368DR,4573,5056,11769,01.131,551
2022-09-22T05:37:22,42.805,6.029,CST-1368DR,4573,5057,11770,01.131,551
2022-09-22T05:40:23,42.805,6.029,CST-1368DR,4573,5058,11772,01.130,551
2022-09-22T05:43:25,42.805,6.029,CST-1368DR,4573,5057,11771,01.131,551
2022-09-22T05:46:27,42.805,6.029,CST-1368DR,4573,5057,11772,01.130,551
2022-09-22T05:49:28,42.805,6.029,CST-1368DR,4573,5057,11771,01.131,551
2022-09-22T05:52:30,42.805,6.029,CST-1368DR,4573,5056,11769,01.131,551
2022-09-22T05:55:31,42.805,6.029,CST-1368DR,4572,5056,11771,01.131,551
2022-09-22T05:58:33,42.805,6.029,CST-1368DR,4572,5056,11771,01.131,551
2022-09-22T06:01:34,42.805,6.029,CST-1368DR,4572,5056,11770,01.131,551
2022-09-22T06:04:36,42.805,6.029,CST-1368DR,4572,5057,11773,01.130,551
2022-09-22T06:07:38,42.805,6.029,CST-1368DR,4572,5057,11774,01.130,551
2022-09-22T06:10:39,42.805,6.029,CST-1368DR,4572,5056,11771,01.131,551
2022-09-22T06:13:41,42.805,6.029,CST-1368DR,4572,5061,11783,01.127,551
2022-09-22T06:16:42,42.805,6.029,CST-1368DR,4572,5062,11784,01.126,551
2022-09-22T06:19:44,42.805,6.029,CST-1368DR,4572,5064,11790,01.124,551
2022-09-22T06:22:46,42.805,6.029,CST-1368DR,4572,5062,11784,01.126,551
2022-09-22T06:25:47,42.805,6.029,CST-1368DR,4573,5071,11802,01.120,551
2022-09-22T06:28:49,42.805,6.029,CST-1368DR,4573,5061,11781,01.127,551
2022-09-22T06:31:50,42.805,6.029,CST-1368DR,4573,5060,11778,01.128,551
2022-09-22T06:34:52,42.805,6.029,CST-1368DR,4573,5057,11771,01.131,551
2022-09-22T06:37:53,42.805,6.029,CST-1368DR,4573,5064,11788,01.125,551
2022-09-22T06:40:55,42.805,6.029,CST-1368DR,4573,5054,11764,01.133,551
2022-09-22T06:43:57,42.805,6.029,CST-1368DR,4573,5060,11778,01.128,551
2022-09-22T06:46:58,42.805,6.029,CST-1368DR,4573,5059,11776,01.129,551
2022-09-22T06:50:00,42.805,6.029,CST-1368DR,4573,5060,11777,01.129,551
2022-09-22T06:53:01,42.805,6.029,CST-1368DR,4573,5057,11772,01.130,551
2022-09-22T06:56:03,42.805,6.029,CST-1368DR,4573,5060,11777,01.129,551
2022-09-22T06:59:04,42.805,6.029,CST-1368DR,4573,5058,11774,01.130,551
2022-09-22T07:02:06,42.805,6.029,CST-1368DR,4573,5058,11774,01.130,551
2022-09-22T07:05:08,42.805,6.029,CST-1368DR,4573,5059,11775,01.129,551
2022-09-22T07:08:09,42.805,6.029,CST-1368DR,4573,5058,11773,01.130,551
2022-09-22T07:11:11,42.805,6.029,CST-1368DR,4573,5058,11773,01.130,551
2022-09-22T07:14:12,42.805,6.029,CST-1368DR,4573,5057,11771,01.131,551
2022-09-22T07:17:14,42.805,6.029,CST-1368DR,4573,5057,11772,01.130,551
2022-09-22T07:20:16,42.805,6.029,CST-1368DR,4573,5057,11770,01.131,551
2022-09-22T07:23:17,42.805,6.029,CST-1368DR,4573,5056,11768,01.132,551
2022-09-22T07:26:19,42.805,6.029,CST-1368DR,4573,5057,11770,01.131,551
2022-09-22T07:29:20,42.805,6.029,CST-1368DR,4573,5056,11769,01.131,551
2022-09-22T07:32:22,42.805,6.029,CST-1368DR,4573,5054,11763,01.133,551
2022-09-22T07:35:23,42.805,6.029,CST-1368DR,4573,5057,11770,01.131,551
2022-09-22T07:38:25,42.805,6.029,CST-1368DR,4573,5057,11770,01.131,551
2022-09-22T07:41:27,42.805,6.029,CST-1368DR,4573,5054,11763,01.133,551
2022-09-22T07:44:28,42.805,6.029,CST-1368DR,4573,5053,11762,01.134,551
2022-09-22T07:47:30,42.805,6.029,CST-1368DR,4573,5058,11773,01.130,551
2022-09-22T07:50:31,42.805,6.029,CST-1368DR,4573,5057,11770,01.131,551
2022-09-22T07:53:33,42.805,6.029,CST-1368DR,4573,5056,11769,01.131,551
2022-09-22T07:56:35,42.805,6.029,CST-1368DR,4573,5060,11777,01.129,551
2022-09-22T07:59:36,42.805,6.029,CST-1368DR,4573,5054,11764,01.133,551
2022-09-22T08:02:38,42.805,6.029,CST-1368DR,4573,5056,11769,01.131,551
2022-09-22T08:05:39,42.805,6.029,CST-1368DR,4573,5055,11766,01.132,551
2022-09-22T08:08:41,42.805,6.029,CST-1368DR,4573,5053,11762,01.134,551
2022-09-22T08:11:42,42.805,6.029,CST-1368DR,4573,5054,11763,01.133,551
2022-09-22T08:14:44,42.805,6.029,CST-1368DR,4573,5056,11769,01.131,551
2022-09-22T08:17:46,42.805,6.029,CST-1368DR,4573,5056,11768,01.132,551
2022-09-22T08:20:47,42.805,6.029,CST-1368DR,4573,5054,11763,01.133,551
2022-09-22T08:23:49,42.805,6.029,CST-1368DR,4573,5057,11771,01.131,551
2022-09-22T08:26:50,42.805,6.029,CST-1368DR,4573,5058,11772,01.130,551
2022-09-22T08:29:52,42.805,6.029,CST-1368DR,4573,5057,11771,01.131,551
2022-09-22T08:32:53,42.805,6.029,CST-1368DR,4573,5057,11770,01.131,551
2022-09-22T08:35:55,42.805,6.029,CST-1368DR,4573,5055,11766,01.132,551
2022-09-22T08:38:57,42.805,6.029,CST-1368DR,4573,5056,11768,01.132,551
2022-09-22T08:41:58,42.805,6.029,CST-1368DR,4573,5055,11767,01.132,551
2022-09-22T08:45:00,42.805,6.029,CST-1368DR,4573,5056,11768,01.132,551
2022-09-22T08:48:01,42.805,6.029,CST-1368DR,4573,5055,11767,01.132,551
2022-09-22T08:51:03,42.805,6.029,CST-1368DR,4573,5054,11763,01.133,551
2022-09-22T08:54:05,42.805,6.029,CST-1368DR,4573,5054,11764,01.133,551
2022-09-22T08:57:06,42.805,6.029,CST-1368DR,4573,5055,11767,01.132,551
2022-09-22T09:00:08,42.805,6.029,CST-1368DR,4573,5054,11764,01.133,551
2022-09-22T09:03:09,42.805,6.029,CST-1368DR,4573,5053,11761,01.134,551
2022-09-22T09:06:11,42.805,6.029,CST-1368DR,4573,5053,11762,01.134,551
2022-09-22T09:09:12,42.805,6.029,CST-1368DR,4573,5054,11763,01.133,551
2022-09-22T09:12:14,42.805,6.029,CST-1368DR,4573,5054,11763,01.133,551
2022-09-22T09:15:16,42.805,6.029,CST-1368DR,4573,5051,11758,01.135,551
2022-09-22T09:18:17,42.805,6.029,CST-1368DR,4573,5052,11760,01.134,551
2022-09-22T09:21:19,42.805,6.029,CST-1368DR,4573,5054,11763,01.133,551
2022-09-22T09:24:20,42.805,6.029,CST-1368DR,4573,5054,11764,01.133,551
2022-09-22T09:27:22,42.805,6.029,CST-1368DR,4573,5054,11763,01.133,551
2022-09-22T09:30:24,42.805,6.029,CST-1368DR,4573,5054,11763,01.133,551
2022-09-22T09:33:25,42.805,6.029,CST-1368DR,4573,5054,11764,01.133,551
2022-09-22T09:36:27,42.805,6.029,CST-1368DR,4573,5055,11765,01.133,551
2022-09-22T09:39:28,42.805,6.029,CST-1368DR,4573,5055,11765,01.133,551
2022-09-22T09:42:30,42.805,6.029,CST-1368DR,4573,5054,11763,01.133,551
2022-09-22T09:45:31,42.805,6.029,CST-1368DR,4573,5054,11765,01.133,551
2022-09-22T09:48:33,42.805,6.029,CST-1368DR,4573,5057,11770,01.131,551
2022-09-22T09:51:35,42.805,6.029,CST-1368DR,4573,5055,11767,01.132,551
2022-09-22T09:54:36,42.805,6.029,CST-1368DR,4573,5054,11765,01.133,551
2022-09-22T09:57:38,42.805,6.029,CST-1368DR,4573,5054,11765,01.133,551
2022-09-22T10:00:39,42.805,6.029,CST-1368DR,4573,5054,11764,01.133,551
2022-09-22T10:03:41,42.805,6.029,CST-1368DR,4573,5054,11764,01.133,551
2022-09-22T10:06:42,42.805,6.029,CST-1368DR,4573,5056,11768,01.132,551
2022-09-22T10:09:44,42.805,6.029,CST-1368DR,4573,5056,11768,01.132,551
2022-09-22T10:12:46,42.805,6.029,CST-1368DR,4573,5056,11768,01.132,551
2022-09-22T10:15:47,42.805,6.029,CST-1368DR,4573,5054,11765,01.133,551
2022-09-22T10:18:49,42.805,6.029,CST-1368DR,4573,5055,11765,01.133,551
2022-09-22T10:21:50,42.805,6.029,CST-1368DR,4573,5054,11764,01.133,551
2022-09-22T10:24:52,42.805,6.029,CST-1368DR,4573,5055,11765,01.133,551
2022-09-22T10:27:54,42.805,6.029,CST-1368DR,4573,5055,11767,01.132,551
2022-09-22T10:30:55,42.805,6.029,CST-1368DR,4573,5054,11765,01.133,551
2022-09-22T10:33:57,42.805,6.029,CST-1368DR,4573,5056,11768,01.132,550
2022-09-22T10:36:58,42.805,6.029,CST-1368DR,4573,5056,11768,01.132,551
2022-09-22T10:40:00,42.805,6.029,CST-1368DR,4573,5054,11764,01.133,551
2022-09-22T10:43:01,42.805,6.029,CST-1368DR,4573,5056,11768,01.132,551
2022-09-22T10:46:03,42.805,6.029,CST-1368DR,4573,5056,11769,01.131,551
2022-09-22T10:49:05,42.805,6.029,CST-1368DR,4572,5056,11770,01.131,551
2022-09-22T10:52:06,42.805,6.029,CST-1368DR,4572,5056,11771,01.131,551
2022-09-22T10:55:08,42.805,6.029,CST-1368DR,4572,5057,11772,01.130,551
2022-09-22T10:58:09,42.805,6.029,CST-1368DR,4572,5057,11772,01.130,551
2022-09-22T11:01:11,42.805,6.029,CST-1368DR,4572,5056,11771,01.131,551
2022-09-22T11:04:12,42.805,6.029,CST-1368DR,4572,5050,11757,01.135,551
2022-09-22T11:07:14,42.805,6.029,CST-1368DR,4572,5055,11769,01.131,551
2022-09-22T11:10:16,42.805,6.029,CST-1368DR,4572,5056,11771,01.131,551
2022-09-22T11:13:17,42.805,6.029,CST-1368DR,4572,5056,11772,01.130,551
2022-09-22T11:16:19,42.805,6.029,CST-1368DR,4572,5055,11769,01.131,551
2022-09-22T11:19:20,42.805,6.029,CST-1368DR,4572,5055,11768,01.132,551
2022-09-22T11:22:22,42.805,6.029,CST-1368DR,4572,5056,11771,01.131,551
2022-09-22T11:25:24,42.805,6.029,CST-1368DR,4572,5056,11772,01.130,551
2022-09-22T11:28:25,42.805,6.029,CST-1368DR,4572,5055,11768,01.132,551
2022-09-22T11:31:27,42.805,6.029,CST-1368DR,4572,5055,11769,01.131,551
2022-09-22T11:34:28,42.805,6.029,CST-1368DR,4572,5056,11770,01.131,551
2022-09-22T11:37:30,42.805,6.029,CST-1368DR,4572,5055,11768,01.132,551
2022-09-22T11:40:31,42.805,6.029,CST-1368DR,4572,5057,11774,01.130,551
2022-09-22T11:43:33,42.805,6.029,CST-1368DR,4572,5056,11770,01.131,551
2022-09-22T11:46:35,42.805,6.029,CST-1368DR,4572,5056,11771,01.131,551
2022-09-22T11:49:36,42.805,6.029,CST-1368DR,4572,5055,11769,01.131,551
2022-09-22T11:52:38,42.805,6.029,CST-1368DR,4572,5056,11772,01.130,551
2022-09-22T11:55:39,42.805,6.029,CST-1368DR,4572,5056,11771,01.131,551
2022-09-22T11:58:41,42.805,6.029,CST-1368DR,4572,5055,11768,01.132,551
2022-09-22T12:01:42,42.805,6.029,CST-1368DR,4573,5055,11766,01.132,551
2022-09-22T12:04:44,42.805,6.029,CST-1368DR,4573,5058,11772,01.130,551
2022-09-22T12:07:46,42.805,6.029,CST-1368DR,4572,5054,11765,01.133,551
2022-09-22T12:10:47,42.805,6.029,CST-1368DR,4572,5055,11768,01.132,551
2022-09-22T12:13:49,42.805,6.029,CST-1368DR,4572,5056,11770,01.131,551
2022-09-22T12:16:50,42.805,6.029,CST-1368DR,4572,5056,11771,01.131,551
2022-09-22T12:19:52,42.805,6.029,CST-1368DR,4572,5055,11769,01.131,551
2022-09-22T12:22:54,42.805,6.029,CST-1368DR,4572,5055,11769,01.131,551
2022-09-22T12:25:55,42.805,6.029,CST-1368DR,4572,5054,11766,01.132,551
2022-09-22T12:28:57,42.805,6.029,CST-1368DR,4572,5055,11769,01.131,551
2022-09-22T12:31:58,42.805,6.029,CST-1368DR,4572,5053,11764,01.133,551
2022-09-22T12:35:00,42.805,6.029,CST-1368DR,4572,5054,11767,01.132,551
2022-09-22T12:38:01,42.805,6.029,CST-1368DR,4572,5045,11746,01.139,551
2022-09-22T12:41:03,42.805,6.029,CST-1368DR,4572,5054,11766,01.132,551
2022-09-22T12:44:05,42.805,6.029,CST-1368DR,4572,5054,11767,01.132,551
2022-09-22T12:47:06,42.805,6.029,CST-1368DR,4573,5055,11766,01.132,551
2022-09-22T12:50:08,42.805,6.029,CST-1368DR,4573,5055,11765,01.133,551
2022-09-22T12:53:09,42.805,6.029,CST-1368DR,4572,5054,11767,01.132,551
2022-09-22T12:56:11,42.805,6.029,CST-1368DR,4573,5054,11763,01.133,551
2022-09-22T12:59:13,42.805,6.029,CST-1368DR,4572,5055,11768,01.132,551
2022-09-22T13:02:14,42.805,6.029,CST-1368DR,4572,5056,11770,01.131,551
2022-09-22T13:05:16,42.805,6.029,CST-1368DR,4572,5055,11768,01.132,551
2022-09-22T13:08:17,42.805,6.029,CST-1368DR,4572,5055,11768,01.132,551
2022-09-22T13:11:19,42.805,6.029,CST-1368DR,4572,5054,11767,01.132,551
2022-09-22T13:14:20,42.805,6.029,CST-1368DR,4572,5056,11771,01.131,550
2022-09-22T13:17:22,42.805,6.029,CST-1368DR,4572,5055,11769,01.131,551
2022-09-22T13:20:24,42.805,6.029,CST-1368DR,4572,5053,11765,01.133,551
2022-09-22T13:23:25,42.805,6.029,CST-1368DR,4572,5055,11768,01.132,551
2022-09-22T13:26:27,42.805,6.029,CST-1368DR,4572,5054,11767,01.132,551
2022-09-22T13:29:28,42.805,6.029,CST-1368DR,4572,5054,11765,01.133,551
2022-09-22T13:32:30,42.805,6.029,CST-1368DR,4572,5054,11767,01.132,551
2022-09-22T13:35:31,42.805,6.029,CST-1368DR,4572,5055,11768,01.132,551
2022-09-22T13:38:33,42.805,6.029,CST-1368DR,4572,5054,11765,01.133,551
2022-09-22T13:41:35,42.805,6.029,CST-1368DR,4572,5055,11768,01.132,551
2022-09-22T13:44:36,42.805,6.029,CST-1368DR,4572,5055,11769,01.131,551
2022-09-22T13:47:38,42.805,6.029,CST-1368DR,4572,5056,11770,01.131,551
2022-09-22T13:50:39,42.805,6.029,CST-1368DR,4572,5055,11768,01.132,551
2022-09-22T13:53:41,42.805,6.029,CST-1368DR,4572,5053,11765,01.133,551
2022-09-22T13:56:42,42.805,6.029,CST-1368DR,4572,5053,11764,01.133,551
2022-09-22T13:59:44,42.805,6.029,CST-1368DR,4572,5068,11798,01.121,551
2022-09-22T14:02:46,42.805,6.029,CST-1368DR,4572,5056,11772,01.130,551
2022-09-22T14:05:47,42.805,6.029,CST-1368DR,4572,5053,11764,01.133,551
2022-09-22T14:08:49,42.805,6.029,CST-1368DR,4572,5054,11766,01.132,551
2022-09-22T14:11:50,42.805,6.029,CST-1368DR,4572,5055,11768,01.132,551
2022-09-22T14:14:52,42.805,6.029,CST-1368DR,4572,5055,11768,01.132,551
2022-09-22T14:17:54,42.805,6.029,CST-1368DR,4572,5053,11764,01.133,551
2022-09-22T14:20:55,42.805,6.029,CST-1368DR,4572,5055,11768,01.132,551
2022-09-22T14:23:57,42.805,6.029,CST-1368DR,4572,5053,11765,01.133,551
2022-09-22T14:26:58,42.805,6.029,CST-1368DR,4572,5056,11771,01.131,551
2022-09-22T14:30:00,42.805,6.029,CST-1368DR,4572,5054,11767,01.132,551
2022-09-22T14:33:01,42.805,6.029,CST-1368DR,4572,5055,11768,01.132,551
2022-09-22T14:36:03,42.805,6.029,CST-1368DR,4572,5053,11764,01.133,551
2022-09-22T14:39:05,42.805,6.029,CST-1368DR,4572,5052,11761,01.134,551
2022-09-22T14:42:06,42.805,6.029,CST-1368DR,4572,5053,11764,01.133,551
2022-09-22T14:45:08,42.805,6.029,CST-1368DR,4572,5051,11760,01.134,551
2022-09-22T14:48:09,42.805,6.029,CST-1368DR,4572,5053,11763,01.133,551
2022-09-22T14:51:11,42.805,6.029,CST-1368DR,4572,5051,11759,01.135,551
2022-09-22T14:54:12,42.805,6.029,CST-1368DR,4572,5052,11762,01.134,551
2022-09-22T14:57:14,42.805,6.029,CST-1368DR,4572,5052,11761,01.134,551
2022-09-22T15:00:16,42.805,6.029,CST-1368DR,4572,5053,11764,01.133,551
2022-09-22T15:03:17,42.805,6.029,CST-1368DR,4572,5052,11762,01.134,551
2022-09-22T15:06:19,42.805,6.029,CST-1368DR,4572,5053,11765,01.133,551
2022-09-22T15:09:20,42.805,6.029,CST-1368DR,4572,5054,11765,01.133,551
2022-09-22T15:12:22,42.805,6.029,CST-1368DR,4572,5053,11764,01.133,551
2022-09-22T15:15:24,42.805,6.029,CST-1368DR,4572,5052,11761,01.134,551
2022-09-22T15:18:25,42.805,6.029,CST-1368DR,4572,5053,11765,01.133,551
2022-09-22T15:21:27,42.805,6.029,CST-1368DR,4572,5054,11767,01.132,551
2022-09-22T15:24:28,42.805,6.029,CST-1368DR,4572,5051,11760,01.134,551
2022-09-22T15:27:30,42.805,6.029,CST-1368DR,4572,5053,11764,01.133,551
2022-09-22T15:30:31,42.805,6.029,CST-1368DR,4572,5053,11764,01.133,551
2022-09-22T15:33:33,42.805,6.029,CST-1368DR,4572,5053,11764,01.133,551
2022-09-22T15:36:35,42.805,6.029,CST-1368DR,4572,5053,11763,01.133,551
2022-09-22T15:39:36,42.805,6.029,CST-1368DR,4572,5054,11766,01.132,551
2022-09-22T15:42:38,42.805,6.029,CST-1368DR,4572,5054,11766,01.132,551
2022-09-22T15:45:39,42.805,6.029,CST-1368DR,4572,5054,11765,01.133,551
2022-09-22T15:48:41,42.805,6.029,CST-1368DR,4572,5053,11763,01.133,551
2022-09-22T15:51:42,42.805,6.029,CST-1368DR,4572,5053,11763,01.133,551
2022-09-22T15:54:44,42.805,6.029,CST-1368DR,4572,5054,11767,01.132,551
2022-09-22T15:57:46,42.805,6.029,CST-1368DR,4572,5054,11767,01.132,551
2022-09-22T16:00:47,42.805,6.029,CST-1368DR,4572,5053,11765,01.133,551
2022-09-22T16:03:49,42.805,6.029,CST-1368DR,4572,5053,11765,01.133,551
2022-09-22T16:06:50,42.805,6.029,CST-1368DR,4572,5055,11768,01.132,551
2022-09-22T16:09:52,42.805,6.029,CST-1368DR,4572,5054,11767,01.132,551
2022-09-22T16:12:54,42.805,6.029,CST-1368DR,4572,5056,11770,01.131,551
2022-09-22T16:15:55,42.805,6.029,CST-1368DR,4572,5053,11765,01.133,551
2022-09-22T16:18:57,42.805,6.029,CST-1368DR,4572,5053,11764,01.133,551
2022-09-22T16:21:58,42.805,6.029,CST-1368DR,4572,5053,11765,01.133,551
2022-09-22T16:25:00,42.805,6.029,CST-1368DR,4572,5054,11765,01.133,551
2022-09-22T16:28:01,42.805,6.029,CST-1368DR,4572,5054,11767,01.132,551
2022-09-22T16:31:03,42.805,6.029,CST-1368DR,4572,5055,11768,01.132,551
2022-09-22T16:34:05,42.805,6.029,CST-1368DR,4572,5054,11766,01.132,551
2022-09-22T16:37:06,42.805,6.029,CST-1368DR,4572,5053,11763,01.133,551